Stations météo

réclame
Mon MeteoGroup
Zwiesel, Allemagne (10796): Température de l'air & dewpoint: 10.07.2019 04:00:00 - 16.07.2019 04:00:00 (CEST)Zwiesel, Allemagne (10796): Température de l'air 5cm & Température de l'air -5cm: 10.07.2019 04:00:00 - 16.07.2019 04:00:00 (CEST)Zwiesel, Allemagne (10796): Température de l'air -20cm & Température de l'air -100cm: 10.07.2019 04:00:00 - 16.07.2019 04:00:00 (CEST)Zwiesel, Allemagne (10796): Vitesse du vent & gusts: 10.07.2019 04:00:00 - 16.07.2019 04:00:00 (CEST)Zwiesel, Allemagne (10796): Direction du vent: 10.07.2019 04:00:00 - 16.07.2019 04:00:00 (CEST)Zwiesel, Allemagne (10796): reduced air pressure: 10.07.2019 04:00:00 - 16.07.2019 04:00:00 (CEST)Zwiesel, Allemagne (10796): visibility: 10.07.2019 04:00:00 - 16.07.2019 04:00:00 (CEST)Zwiesel, Allemagne (10796): Ensoleillement: 10.07.2019 04:00:00 - 16.07.2019 04:00:00 (CEST)Zwiesel, Allemagne (10796): Quantités de précipitations: 10.07.2019 04:00:00 - 16.07.2019 04:00:00 (CEST)
Date & Time tt [°C] td [°C] tt 5cm [°C] tt -5cm [°C] tt -20cm [°C] tt -100cm [°C] ff [km/h] ff [knt] fx [km/h] fx [knt] dd ppp [hPa] vv [km] sd [min] rr [mm]
16.07.2019 04:00:00 8,8 8,1 7,1 12,1 18,3 16,7 2 1 5 3 WNW 1017,2 9 0 0,0
16.07.2019 03:00:00 9,4 8,3 8,5 12,7 18,7 16,7 4 2 8 5 NE 1017,1 10 0 0,0
16.07.2019 02:00:00 10,4 9,2 8,7 13,5 19,0 16,7 3 2 8 4 E 1017,0 16 0 0,0
16.07.2019 01:00:00 11,3 9,5 9,7 14,3 19,3 16,7 3 2 8 5 NNE 1016,9 27 0 0,0
16.07.2019 00:00:00 11,9 9,8 9,6 15,2 19,6 16,7 3 2 7 4 N 1016,5 28 0 0,0
15.07.2019 23:00:00 13,4 10,3 11,3 16,4 19,9 16,8 3 2 6 3 E 1016,1 33 0 0,0
15.07.2019 22:00:00 14,8 10,6 12,0 17,9 20,0 16,8 3 2 7 4 NNE 1015,5 43 0 0,0
15.07.2019 21:00:00 17,5 10,2 15,5 19,8 20,1 16,8 4 2 7 4 NNE 1014,3 54 33 0,0
15.07.2019 20:00:00 18,4 12,0 18,1 21,4 20,1 16,8 4 2 8 4 NW 1013,6 48 8 0,0
15.07.2019 19:00:00 21,3 8,1 22,3 23,7 19,9 16,8 4 2 14 8 W 1012,8 56 50 0,0
15.07.2019 18:00:00 21,3 9,4 23,6 23,6 19,7 16,8 7 4 15 8 WSW 1013,1 41 15 0,0
15.07.2019 17:00:00 20,3 10,0 21,3 25,2 19,3 16,8 11 6 23 12 SW 1013,5 50 24 0,0
15.07.2019 16:00:00 20,8 8,2 25,4 26,4 18,9 16,8 7 4 13 7 NW 1013,5 47 29 0,0
15.07.2019 15:00:00 20,4 8,5 24,6 26,2 18,3 16,8 5 3 18 10 NNE 1013,7 44 29 0,0
15.07.2019 14:00:00 19,6 8,9 24,9 27,7 17,8 16,8 9 5 21 11 E 1014,2 22 60 0,0
15.07.2019 13:00:00 18,7 9,2 23,7 25,6 17,3 16,8 13 7 26 14 E 1014,9 31 59 0,0
15.07.2019 12:00:00 17,7 9,7 21,7 23,5 16,9 16,8 14 7 30 16 E 1015,2 24 52 0,0
15.07.2019 11:00:00 16,7 9,5 19,7 21,9 16,7 16,8 14 8 29 16 NNE 1015,4 32 58 0,0
15.07.2019 10:00:00 16,4 9,6 19,7 18,9 16,6 16,8 16 9 30 16 NE 1015,5 29 60 0,0
15.07.2019 09:00:00 15,1 9,9 16,7 15,7 16,6 16,8 16 9 27 14 NE 1015,7 23 27 0,0
15.07.2019 08:00:00 14,2 10,9 14,2 14,5 16,8 16,9 6 3 13 7 N 1015,8 18 13 0,0
15.07.2019 07:00:00 12,8 11,0 12,7 12,8 17,0 16,9 2 1 11 6 NW 1016,2 12 4 0,0
15.07.2019 06:00:00 11,8 10,1 10,0 12,0 17,3 16,9 5 3 16 9 N 1016,0 13 0 0,0
15.07.2019 05:00:00 12,5 10,0 10,4 12,3 17,5 16,9 8 4 24 13 NE 1015,6 23 0 0,0
15.07.2019 04:00:00 12,6 10,4 10,7 12,7 17,8 16,9 8 5 19 10 NNE 1015,7 19 0 0,0
15.07.2019 03:00:00 12,3 10,5 10,7 13,2 18,1 16,9 8 4 16 9 NNE 1016,1 18 0 0,0
15.07.2019 02:00:00 13,0 10,7 11,4 13,8 18,3 16,9 10 6 19 11 NNE 1016,0 26 0 0,0
15.07.2019 01:00:00 12,5 10,7 10,7 14,5 18,5 16,9 4 2 10 6 N 1016,3 31 0 0,0
15.07.2019 00:00:00 13,0 11,3 12,6 15,5 18,8 16,9 7 4 14 7 NE 1016,2 34 0 0,0
14.07.2019 23:00:00 12,5 11,2 11,7 16,1 18,9 16,9 2 1 8 4 W 1016,5 44 0 0,0
14.07.2019 22:00:00 13,0 11,1 12,7 17,4 19,0 16,9 4 2 9 5 NNE 1016,3 58 0 0,0
14.07.2019 21:00:00 14,7 13,4 14,7 18,4 19,1 16,9 3 2 6 4 W 1015,7 21 0 1,5
14.07.2019 20:00:00 15,9 12,2 16,2 19,6 19,1 16,9 5 3 13 7 SSE 1014,8 69 0 0,0
14.07.2019 19:00:00 16,8 12,8 17,5 20,9 19,0 17,0 6 3 10 5 SSW 1014,4 52 8 0,0
14.07.2019 18:00:00 17,0 12,2 18,1 21,2 18,9 17,0 2 1 10 5 W 1014,0 58 1 0,0
14.07.2019 17:00:00 15,4 11,7 16,8 21,1 18,7 17,0 7 4 15 8 E 1014,5 39 0 0,2
14.07.2019 16:00:00 16,3 11,5 17,1 22,8 18,4 17,0 10 5 26 14 NW 1014,8 70 15 0,0
14.07.2019 15:00:00 18,2 10,8 22,1 24,5 17,9 17,0 5 3 14 7 NNE 1013,9 70 16 0,0
14.07.2019 14:00:00 17,3 11,7 20,5 24,5 17,5 17,0 6 3 19 10 S 1014,4 54 33 0,0
14.07.2019 13:00:00 18,3 12,2 23,1 22,9 17,2 17,0 12 6 17 9 W 1014,4 36 14 0,0
14.07.2019 12:00:00 16,9 11,1 19,4 21,9 17,0 17,0 5 3 11 6 SSE 1014,9 52 29 0,0
14.07.2019 11:00:00 14,6 12,0 16,2 17,2 17,0 17,0 3 2 5 3 WNW 1015,9 53 0 0,0
14.07.2019 10:00:00 13,8 11,6 14,8 16,3 17,0 17,0 3 2 5 3 NNW 1016,0 34 0 0,0
14.07.2019 09:00:00 13,2 11,3 14,0 15,7 17,1 17,0 2 1 5 3 NW 1016,0 38 0 0,0
14.07.2019 08:00:00 12,6 11,4 13,3 15,0 17,2 17,0 4 2 6 3 N 1015,9 36 0 0,0
14.07.2019 07:00:00 12,3 11,7 12,7 14,6 17,3 17,0 3 1 5 3 W 1015,9 18 0 0,0
14.07.2019 06:00:00 12,0 11,5 12,4 14,4 17,4 17,0 0 0 6 3 N 1016,0 10 0 0,0
14.07.2019 05:00:00 12,1 11,6 12,2 14,6 17,5 17,0 4 2 5 3 W 1015,7 7 0 0,0
14.07.2019 04:00:00 12,5 12,0 12,8 15,0 17,7 17,0 3 2 4 2 NNW 1015,6 8 0 0,0
14.07.2019 03:00:00 12,8 12,3 13,1 15,1 17,8 17,1 3 2 5 3 NW 1015,8 3,0 0 0,0
14.07.2019 02:00:00 13,2 12,7 13,1 15,4 17,9 17,1 2 1 5 3 WSW 1015,9 7 0 0,5
14.07.2019 01:00:00 13,4 12,7 13,7 15,6 18,1 17,1 3 2 6 3 WSW 1016,2 13 0 0,1
14.07.2019 00:00:00 13,3 12,6 13,5 15,7 18,2 17,1 4 2 8 4 SE 1016,1 15 0 1,9
13.07.2019 23:00:00 13,8 12,5 13,8 16,2 18,3 17,1 4 2 10 5 SSE 1016,0 6 0 0,2
13.07.2019 22:00:00 13,7 12,1 13,7 16,7 18,4 17,1 4 2 8 4 SSE 1015,8 41 0 0,0
13.07.2019 21:00:00 14,2 11,9 13,9 17,4 18,4 17,1 3 2 7 4 SW 1015,3 70 0 0,0
13.07.2019 20:00:00 14,9 11,9 14,4 18,2 18,4 17,1 8 4 22 12 NW 1014,8 18 4 0,1
13.07.2019 19:00:00 16,4 11,3 20,1 19,1 18,3 17,1 6 3 14 8 NNW 1014,1 70 7 0,0
13.07.2019 18:00:00 15,5 11,6 15,3 19,0 18,2 17,1 7 4 33 18 N 1014,1 49 1 0,1
13.07.2019 17:00:00 15,8 12,0 16,4 19,8 18,0 17,1 18 10 28 15 W 1013,9 27 3 0,0
13.07.2019 16:00:00 15,9 11,5 16,3 21,3 17,7 17,1 19 11 31 17 W 1013,8 33 26 0,0
13.07.2019 15:00:00 15,6 12,7 16,9 19,8 17,5 17,1 12 7 21 11 W 1013,9 26 7 0,0
13.07.2019 14:00:00 15,1 12,1 16,7 19,3 17,4 17,1 8 4 16 9 W 1014,3 40 4 0,0
13.07.2019 13:00:00 14,3 12,0 14,8 17,8 17,4 17,1 8 4 18 10 W 1014,3 45 4 0,2
13.07.2019 12:00:00 13,1 11,7 13,5 16,1 17,4 17,1 7 4 16 9 W 1014,4 8 0 0,2
13.07.2019 11:00:00 12,8 11,6 13,2 15,5 17,5 17,1 8 4 24 13 W 1014,0 3,9 0 1,2
13.07.2019 10:00:00 12,9 11,5 13,6 15,3 17,6 17,1 12 7 26 14 W 1013,7 26 0 0,1
13.07.2019 09:00:00 12,3 11,5 12,8 14,7 17,7 17,1 3 2 10 5 SW 1013,4 2,4 0 2,8
13.07.2019 08:00:00 12,1 11,3 12,7 14,7 17,9 17,1 4 2 7 4 S 1013,0 12 0 1,7
13.07.2019 07:00:00 12,1 11,4 12,4 14,5 18,2 17,1 2 1 5 3 WSW 1012,6 9 0 1,7
13.07.2019 06:00:00 11,8 11,1 12,0 14,5 18,4 17,2 4 2 7 4 SE 1012,1 3,8 0 0,8
13.07.2019 05:00:00 11,7 11,1 12,1 14,5 18,6 17,2 5 3 8 4 E 1011,9 16 0 0,2
13.07.2019 04:00:00 11,7 11,1 12,0 14,4 19,0 17,2 3 2 11 6 SSE 1012,3 19 0 2,0
13.07.2019 03:00:00 11,5 10,9 11,9 14,5 19,4 17,2 6 3 10 5 E 1012,2 5 0 5,1
13.07.2019 02:00:00 11,6 10,9 11,8 15,1 19,7 17,2 5 3 10 5 ENE 1012,5 4,4 0 3,7
13.07.2019 01:00:00 11,6 10,4 11,7 15,6 20,0 17,2 4 2 25 14 E 1012,5 12 0 5,8
13.07.2019 00:00:00 14,3 8,7 13,9 17,5 20,2 17,2 12 7 27 14 NNE 1012,0 58 0 0,0
12.07.2019 23:00:00 15,4 14,0 15,5 18,2 20,4 17,2 3 2 6 3 NW 1011,3 22 0 0,0
12.07.2019 22:00:00 16,0 13,1 15,8 18,8 20,6 17,2 6 3 11 6 SE 1011,1 30 0 0,0
12.07.2019 21:00:00 16,0 13,8 16,3 19,7 20,6 17,2 4 2 10 5 W 1011,1 34 2 0,0
12.07.2019 20:00:00 17,5 12,2 17,4 20,9 20,7 17,2 7 4 12 6 W 1010,8 66 0 0,0
12.07.2019 19:00:00 18,0 11,9 18,5 22,3 20,6 17,2 5 3 15 8 W 1010,9 54 33 0,0
12.07.2019 18:00:00 18,1 11,5 19,7 23,5 20,5 17,2 9 5 21 11 WSW 1011,2 55 57 0,0
12.07.2019 17:00:00 16,0 13,0 18,9 22,1 20,4 17,2 7 4 18 10 ESE 1012,2 30 3 0,0
12.07.2019 16:00:00 13,8 12,3 14,7 21,8 20,1 17,2 11 6 61 33 SW 1012,9 22 0 5,8
12.07.2019 15:00:00 19,8 10,7 22,0 27,8 19,6 17,2 14 8 27 15 WSW 1011,0 39 31 0,0
12.07.2019 14:00:00 20,8 10,8 26,5 28,4 19,2 17,2 13 7 25 13 WSW 1010,8 35 52 0,0
12.07.2019 13:00:00 18,5 11,4 24,5 25,0 18,9 17,2 15 8 26 14 WNW 1012,1 25 41 0,0
12.07.2019 12:00:00 17,4 12,0 20,3 21,8 18,8 17,2 15 8 25 13 WSW 1012,7 15 19 0,0
12.07.2019 11:00:00 16,4 12,1 18,2 19,9 18,7 17,2 9 5 19 10 W 1013,0 27 1 0,0
12.07.2019 10:00:00 15,7 11,7 20,2 19,1 18,7 17,2 6 3 11 6 E 1013,1 18 15 0,0
12.07.2019 09:00:00 14,0 12,2 15,0 17,0 18,8 17,2 5 3 10 5 SSW 1013,8 12 0 0,0
12.07.2019 08:00:00 13,5 12,0 13,9 16,7 18,9 17,2 7 4 11 6 SSW 1014,1 11 0 0,0
12.07.2019 07:00:00 13,1 12,0 13,3 16,1 19,1 17,3 6 3 13 7 SW 1014,0 10 0 0,0
12.07.2019 06:00:00 12,6 12,0 12,9 16,0 19,2 17,3 5 3 10 5 WSW 1014,3 3,3 0 0,5
12.07.2019 05:00:00 12,5 11,7 12,6 16,1 19,4 17,3 6 3 15 8 SW 1013,9 14 0 0,1
12.07.2019 04:00:00 12,5 11,6 12,7 16,4 19,6 17,3 5 3 8 5 SSW 1014,0 15 0 0,2
12.07.2019 03:00:00 12,6 11,6 12,7 16,7 19,7 17,3 3 2 13 7 SSW 1014,2 16 0 0,2
12.07.2019 02:00:00 12,7 11,8 12,8 17,1 19,9 17,3 4 2 8 4 SW 1014,6 5 0 0,6
12.07.2019 01:00:00 12,7 11,5 12,6 17,5 20,1 17,3 5 3 11 6 WSW 1014,9 4,8 0 0,4
12.07.2019 00:00:00 13,1 10,9 13,0 17,9 20,3 17,3 6 3 12 7 WSW 1015,0 19 0 0,0
11.07.2019 23:00:00 13,9 10,2 13,7 18,4 20,4 17,3 6 3 14 8 SW 1014,6 40 0 0,0
11.07.2019 22:00:00 14,4 10,1 14,3 19,1 20,5 17,3 9 5 17 9 SW 1014,5 44 0 0,0
11.07.2019 21:00:00 15,2 9,4 14,9 20,1 20,6 17,3 8 4 27 14 SW 1014,1 42 0 0,0
11.07.2019 20:00:00 16,3 8,7 16,6 21,1 20,6 17,3 18 10 31 17 WSW 1013,4 56 0 0,0
11.07.2019 19:00:00 18,8 7,3 19,2 22,3 20,5 17,3 7 4 20 11 SW 1012,4 70 0 0,0
11.07.2019 18:00:00 19,1 6,9 20,1 23,5 20,3 17,3 9 5 20 11 WSW 1012,4 68 0 0,0
11.07.2019 17:00:00 19,4 6,8 21,1 24,3 20,1 17,3 11 6 17 9 W 1012,6 70 0 0,0
11.07.2019 16:00:00 18,5 5,1 21,3 23,9 19,9 17,3 4 2 24 13 WNW 1013,2 70 0 0,0
11.07.2019 15:00:00 18,6 5,2 20,5 23,8 19,6 17,3 16 9 29 15 WNW 1013,3 69 0 0,0
11.07.2019 14:00:00 19,0 5,2 21,6 23,9 19,3 17,3 8 4 32 17 W 1013,4 70 3 0,0
11.07.2019 13:00:00 19,2 5,1 23,4 24,1 19,0 17,3 13 7 27 15 NW 1013,5 55 14 0,0
11.07.2019 12:00:00 17,3 6,1 22,8 21,6 18,9 17,3 5 3 11 6 ESE 1014,5 70 2 0,0
11.07.2019 11:00:00 15,5 7,0 17,4 18,9 18,9 17,3 3 1 6 3 SSW 1015,5 56 0 0,1
11.07.2019 10:00:00 14,1 7,0 16,2 18,0 18,9 17,3 4 2 7 4 E 1015,7 61 0 0,0
11.07.2019 09:00:00 13,2 5,7 15,2 16,8 19,1 17,3 3 2 7 4 S 1015,9 70 0 0,0
11.07.2019 08:00:00 10,9 5,8 12,2 15,4 19,3 17,3 0 0 5 3 N 1016,5 52 0 0,0
11.07.2019 07:00:00 9,0 5,9 10,1 14,5 19,6 17,3 0 0 4 2 N 1017,0 50 1 0,0
11.07.2019 06:00:00 7,6 5,2 8,3 13,7 19,9 17,3 0 0 5 3 N 1017,4 54 0 0,0
11.07.2019 05:00:00 6,4 4,0 4,6 13,7 20,2 17,3 0 0 6 3 N 1017,7 34 0 0,0
11.07.2019 04:00:00 6,9 4,2 3,8 14,3 20,6 17,3 0 0 5 3 N 1018,0 57 0 0,0
11.07.2019 03:00:00 7,9 4,0 5,5 15,1 21,0 17,4 0 0 6 3 N 1018,1 61 0 0,0
11.07.2019 02:00:00 8,9 4,3 7,0 16,0 21,3 17,4 3 2 6 3 ESE 1018,3 62 0 0,0
11.07.2019 01:00:00 9,2 4,5 7,7 16,9 21,7 17,4 3 2 6 3 N 1018,4 70 0 0,0
11.07.2019 00:00:00 10,5 4,2 7,6 17,7 22,0 17,4 0 0 5 3 N 1018,2 69 0 0,0
10.07.2019 23:00:00 11,7 4,4 8,2 19,1 22,3 17,4 2 1 4 2 NE 1018,0 70 0 0,0
10.07.2019 22:00:00 13,1 4,5 9,1 21,0 22,5 17,4 1 1 5 3 NW 1017,2 70 0 0,0
10.07.2019 21:00:00 16,5 4,2 13,3 23,4 22,5 17,4 4 2 16 9 W 1016,0 70 38 0,0
10.07.2019 20:00:00 19,1 2,6 19,5 25,5 22,4 17,4 11 6 24 13 WNW 1015,5 70 46 0,0
10.07.2019 19:00:00 20,2 1,5 22,7 28,2 22,0 17,4 17 9 32 17 WNW 1015,2 38 60 0,0
10.07.2019 18:00:00 20,8 2,4 25,2 29,4 21,6 17,4 14 8 31 17 W 1015,1 33 57 0,0
10.07.2019 17:00:00 20,5 2,4 26,2 29,1 21,2 17,4 15 8 31 17 WSW 1015,3 52 34 0,0
10.07.2019 16:00:00 20,1 3,0 26,0 29,7 20,7 17,4 13 7 26 14 W 1015,7 50 43 0,0
10.07.2019 15:00:00 18,4 3,1 23,2 28,7 20,1 17,4 8 5 21 11 WNW 1016,5 31 23 0,0
10.07.2019 14:00:00 17,4 3,0 25,7 29,1 19,7 17,4 9 5 19 11 NNW 1017,1 69 39 0,0
10.07.2019 13:00:00 18,1 3,3 23,7 27,1 19,3 17,4 11 6 21 12 WSW 1017,2 51 43 0,0
10.07.2019 12:00:00 16,3 2,5 21,2 24,1 19,0 17,4 8 4 18 10 W 1017,9 52 20 0,0
10.07.2019 11:00:00 15,1 3,3 21,3 22,1 18,8 17,4 10 5 20 11 WSW 1018,4 70 22 0,0
10.07.2019 10:00:00 13,9 4,1 17,4 20,3 18,8 17,4 11 6 21 12 SW 1018,7 70 38 0,0
10.07.2019 09:00:00 13,2 3,6 17,2 18,0 18,9 17,4 4 2 7 4 W 1018,9 61 41 0,0
10.07.2019 08:00:00 10,8 3,3 13,6 15,2 19,2 17,4 3 2 6 3 ESE 1019,5 70 59 0,0
10.07.2019 07:00:00 7,2 2,8 6,7 12,5 19,6 17,4 2 1 7 4 NNW 1020,5 70 35 0,0
10.07.2019 06:00:00 5,2 2,8 3,5 12,3 20,0 17,4 4 2 9 5 N 1021,0 68 0 0,0
10.07.2019 05:00:00 6,0 3,0 2,4 13,1 20,3 17,4 3 1 8 4 NW 1020,4 68 0 0,0
10.07.2019 04:00:00 7,6 3,1 4,5 14,2 20,7 17,4 4 2 13 7 NE 1019,9 70 0 0,0

tt = Température de l'air
td = dewpoint
tt 5cm = Température de l'air 5cm
tt -5cm = Température de l'air -5cm
tt -20cm = Température de l'air -20cm
tt -100cm = Température de l'air -100cm
ff = Vitesse du vent
fx = gusts
dd = Direction du vent
ppp = reduced air pressure
vv = visibility
sd = Ensoleillement
rr = Quantités de précipitations

stations d'obs. à proximité